Temp
12 12 12 12 12 12 12 12 12 11 11 11 11 11 11 11 12 12 12 12 12 13 15 15 15 16 17 16 16 16 17 17 18 18 18 19 19 19 20 19 19 19 19 18 18 18 18 18 18 18 18 18 18 17 17 17 17 17 17 17 17 17 17 17 17 17 17 17 17 17 17 16 16 16 16 16 16 16 16 16 16 16 16 16 16 16
12 12 12 12 12 12 12 12 12 12 11 11 11 11 11 11 12 12 12 12 12 12 13 15 15 16 16 16 16 17 17 18 18 18 18 18 18 19 20 20 20 20 20 19 19 18 18 18 17 17 17 17 17 17 17 17 17 17 17 17 17 17 17 17 17 17 17 17 17 17 16 16 16 16 16 16 16 16 16 16 16 16 16 16 16 16
11 11 11 11 11 11 11 11 12 12 12 11 11 11 11 11 12 12 12 12 12 12 12 13 14 15 15 16 16 16 17 18 18 18 18 17 18 18 19 19 20 20 20 20 19 19 18 17 17 17 17 17 16 16 16 16 17 17 17 17 17 17 17 17 17 17 17 17 17 16 16 16 16 16 16 16 16 16 16 16 16 16 16 16 16 16
11 11 11 11 11 11 11 11 11 11 11 11 11 11 11 11 12 12 12 13 13 12 12 12 13 15 15 15 15 16 16 16 17 17 17 17 16 16 17 18 19 20 20 19 19 19 18 17 17 17 17 17 16 16 16 16 16 17 17 17 17 17 17 17 17 17 17 17 17 16 16 16 16 16 16 16 16 16 16 16 16 16 16 16 16 16
11 11 11 11 11 11 11 11 11 11 11 11 11 11 11 11 12 12 13 13 13 12 11 11 13 14 15 15 15 15 15 15 15 15 16 16 15 15 16 16 17 18 18 18 18 18 18 17 17 17 17 17 17 16 16 16 16 17 17 17 17 17 17 17 17 17 17 17 17 17 16 16 16 16 16 16 16 15 16 16 16 16 16 16 16 16
11 11 11 11 10 10 11 11 11 11 11 11 11 11 11 11 12 12 13 13 13 12 11 11 11 13 14 15 15 15 15 15 15 15 15 15 15 15 15 15 16 16 16 16 16 17 17 17 17 17 17 17 17 16 16 16 16 16 17 17 17 17 17 17 17 17 17 17 17 16 16 16 16 16 16 16 16 16 16 16 16 16 16 15 15 15
10 10 10 10 9 9 10 10 11 11 11 10 11 11 11 11 12 12 12 12 12 11 11 10 10 11 13 14 15 15 15 15 15 15 15 15 15 15 15 15 15 15 15 15 16 16 16 17 17 17 17 16 16 16 16 16 16 16 17 17 17 17 17 16 16 16 16 16 16 16 16 16 16 16 16 16 16 16 16 16 16 16 15 15 15 15
10 10 9 9 8 8 8 9 10 10 10 10 10 10 10 10 11 11 12 12 11 11 10 9 9 10 11 13 14 14 14 14 14 14 15 15 15 15 14 14 14 15 15 15 15 15 16 16 16 16 16 16 15 15 15 15 16 16 16 17 17 16 16 16 16 16 16 16 16 16 16 16 16 16 16 16 16 16 16 16 15 15 15 15 15 15
9 9 8 8 7 7 8 8 9 9 10 10 10 10 9 9 10 10 11 11 10 10 9 9 8 8 9 10 11 12 13 13 14 14 14 14 15 15 15 15 14 15 15 15 15 15 15 15 15 15 15 15 15 15 15 15 16 16 16 16 16 16 16 16 16 16 16 16 16 16 16 16 16 16 16 16 16 16 16 15 15 15 15 15 15 15
9 9 8 7 7 8 9 8 7 8 9 9 9 9 9 8 8 8 9 9 9 9 9 8 7 6 6 7 9 10 11 12 13 13 13 14 14 14 14 14 14 14 15 15 15 15 15 15 15 15 14 14 14 14 15 15 15 16 16 16 16 16 16 16 16 16 16 16 16 16 16 16 16 16 16 16 16 15 15 15 15 15 15 15 15 15
8 8 8 7 7 7 8 8 7 7 8 8 8 8 8 8 8 7 6 6 6 7 7 7 6 5 5 5 7 8 10 11 12 12 12 12 13 13 13 13 14 14 14 14 14 14 14 14 14 14 14 14 14 14 14 15 15 15 15 15 15 15 15 15 15 15 15 16 16 16 15 15 15 15 15 15 15 15 15 15 15 15 15 14 14 14
8 8 7 7 7 7 7 7 7 7 7 7 7 7 7 7 7 7 6 4 4 4 5 6 5 4 4 4 4 6 7 9 10 10 11 11 12 12 12 12 12 13 13 13 13 13 13 14 14 14 14 14 14 14 14 14 15 15 15 15 15 15 15 15 15 15 15 15 15 15 15 14 15 15 15 15 15 15 15 14 14 14 14 14 14 14
8 7 7 7 6 6 6 6 6 6 6 6 6 6 5 5 6 6 5 4 3 4 4 5 4 4 3 3 3 4 5 6 7 8 9 10 10 10 11 11 11 11 11 12 12 12 12 12 13 13 13 14 14 14 14 14 14 14 15 15 15 15 15 15 15 15 15 15 15 15 15 15 15 15 15 15 14 14 14 14 14 14 14 14 14 14
7 7 6 6 5 5 6 6 6 6 6 6 7 6 6 5 5 4 4 3 3 4 4 4 4 4 4 3 3 3 4 4 5 6 7 7 7 8 8 9 9 9 10 10 10 10 11 11 12 12 13 13 13 13 13 14 14 14 14 14 14 15 14 15 15 15 15 15 15 15 15 15 15 15 15 14 14 14 14 14 14 14 13 13 13 13
6 6 5 5 5 6 6 6 6 7 7 7 7 6 5 4 4 4 4 3 3 3 4 4 4 4 4 3 3 3 3 4 4 5 5 5 5 6 7 7 7 8 8 8 8 8 9 10 10 11 11 12 12 12 13 13 13 13 14 14 14 14 14 14 14 14 14 14 14 14 14 15 15 15 14 14 14 14 14 14 14 13 13 13 13 13
7 6 6 6 6 6 6 6 7 7 7 6 6 5 4 4 4 4 4 3 3 4 4 4 4 3 3 4 3 3 3 3 3 4 4 4 4 5 6 6 6 6 6 6 6 7 8 8 9 9 9 10 10 11 11 12 12 12 13 13 13 13 13 13 13 13 13 13 13 13 13 14 14 14 14 14 14 14 14 14 14 14 13 13 13 13
7 6 6 6 6 6 6 6 6 6 6 5 5 4 4 4 4 4 4 4 4 4 5 5 4 4 3 4 4 4 3 3 3 3 3 3 4 4 5 5 5 5 5 5 6 6 6 7 7 7 8 8 9 9 10 10 10 10 11 11 11 11 11 11 11 11 11 11 11 11 12 12 12 12 12 12 12 12 12 13 13 13 13 14 14 14
7 6 6 6 6 6 6 5 5 5 5 4 4 4 4 5 5 4 4 4 5 5 5 5 4 4 3 2 3 4 3 3 3 3 3 3 3 4 4 5 5 5 5 5 5 5 6 6 6 7 7 7 8 8 9 9 9 9 9 9 10 10 10 10 10 10 10 9 9 9 9 10 10 10 10 10 10 11 11 11 11 12 12 12 12 12
6 6 6 6 6 6 6 5 5 5 4 4 4 4 4 4 4 4 4 5 5 5 5 5 4 3 3 2 2 3 3 3 3 2 2 2 2 3 3 4 4 4 4 4 5 5 5 5 5 6 6 7 7 8 8 8 8 8 8 9 9 9 9 9 9 9 9 9 9 9 8 8 8 8 8 9 9 9 9 9 9 9 9 10 10 10
7 7 6 6 6 6 5 5 5 5 4 4 4 4 4 4 4 4 5 5 5 5 5 4 3 2 2 2 2 2 2 3 3 2 2 1 2 2 3 3 3 3 4 4 4 4 5 5 5 5 6 6 6 7 7 7 7 8 8 8 8 8 8 8 8 8 8 8 8 8 8 8 8 8 8 8 8 8 8 8 8 8 8 8 8 8
6 6 6 6 6 6 5 5 5 5 4 4 4 4 4 4 4 4 5 4 4 4 3 3 2 1 1 2 2 2 2 3 3 2 2 1 1 1 2 2 3 3 3 3 4 4 4 4 4 5 5 5 5 6 6 6 6 7 7 7 7 7 7 8 8 8 8 8 8 8 8 8 8 8 8 8 8 8 8 8 8 8 8 8 8 8
6 6 6 6 6 5 5 5 5 4 4 5 4 4 4 4 4 4 4 4 3 3 3 2 1 1 1 1 2 2 2 2 2 2 2 1 1 1 1 2 2 2 2 3 3 4 4 4 4 4 4 4 5 5 5 5 6 6 6 6 6 6 6 7 7 7 7 7 7 7 8 8 8 8 8 8 8 8 8 8 8 8 8 8 8 8
6 6 6 6 5 5 5 5 4 4 4 5 4 4 4 5 4 4 4 3 3 2 1 1 0 1 1 1 1 2 2 2 2 2 2 1 1 0 1 1 1 1 1 2 3 3 3 3 4 4 4 4 4 4 4 5 5 5 5 5 5 5 6 6 6 6 6 7 7 7 7 7 7 7 8 8 8 8 8 8 8 8 8 8 8 8
6 6 5 5 5 5 5 5 4 4 4 4 4 4 5 4 4 4 3 3 2 1 1 1 1 1 1 1 1 2 2 2 2 2 1 1 0 0 0 1 1 1 1 2 2 3 3 3 3 3 3 3 4 4 4 4 4 4 5 5 5 5 5 5 5 5 6 6 6 6 6 7 7 7 7 7 7 7 7 7 7 7 7 7 7 7
6 5 5 5 5 5 5 4 4 4 4 4 4 4 4 4 3 3 2 2 1 1 1 2 1 1 1 1 1 1 1 2 2 2 1 0 -0 -0 0 1 1 1 1 1 2 2 2 3 3 3 3 3 3 3 3 4 4 4 4 4 4 4 5 5 5 5 5 5 5 5 5 6 6 6 6 6 6 6 6 6 6 6 6 6 6 6
5 5 5 5 5 4 4 4 4 4 4 4 4 4 4 3 3 2 2 2 2 2 2 2 2 1 1 1 1 1 1 1 2 2 2 1 0 -0 0 0 0 0 1 1 1 2 2 2 2 3 3 3 3 3 3 3 3 3 3 3 4 4 4 4 4 4 4 4 4 4 4 5 5 5 5 5 5 5 5 5 5 5 5 5 5 5
5 5 4 4 4 4 4 4 4 4 4 4 4 4 4 3 3 2 2 2 2 3 3 2 2 1 1 1 0 0 1 1 1 2 2 1 1 0 0 0 0 0 0 1 1 1 1 2 2 2 2 3 3 3 2 2 3 3 3 3 3 3 3 3 3 3 3 3 3 3 4 4 4 4 4 4 4 4 5 5 5 5 5 4 4 4
4 4 4 4 4 4 4 4 4 4 4 4 4 4 4 4 3 2 2 2 3 3 3 3 2 2 1 1 0 0 1 1 1 1 1 1 1 0 -0 0 1 0 0 0 0 1 1 1 1 2 2 2 2 2 2 2 2 2 2 2 2 2 2 2 3 3 3 3 3 3 3 3 3 3 3 4 4 4 4 4 4 4 4 4 4 3
4 4 4 4 4 4 4 4 4 4 4 4 4 4 4 4 3 3 2 3 3 3 3 3 2 2 1 0 -0 0 0 1 1 1 1 1 1 0 0 0 1 1 1 0 0 1 1 1 1 1 2 2 2 2 2 2 2 2 2 2 2 2 2 2 2 2 2 2 2 2 2 2 3 3 3 3 3 3 4 4 4 4 4 4 3 3
3 3 3 3 3 3 3 3 3 3 3 3 3 3 3 3 3 3 3 3 3 3 3 3 2 1 1 1 0 0 0 0 1 1 1 1 0 0 0 0 1 1 1 1 1 0 -0 0 1 1 1 2 2 2 1 1 1 1 1 1 1 1 1 1 1 1 1 1 1 2 2 2 2 2 2 2 3 3 3 3 3 3 3 3 3 3
2 2 2 2 3 3 3 3 3 3 3 3 3 3 3 3 3 3 3 3 3 3 3 2 1 1 1 1 1 1 1 0 0 1 1 1 0 0 0 0 0 1 1 1 1 0 -0 -0 -0 1 1 1 1 1 1 1 1 1 1 1 1 1 1 1 1 1 1 1 1 1 1 1 1 1 2 2 2 2 2 2 3 3 3 3 3 2
1 1 1 2 2 2 2 2 2 2 2 2 2 3 3 3 3 3 3 3 3 2 2 2 2 2 2 2 2 1 1 1 1 1 1 1 0 0 0 0 -0 0 1 1 1 1 0 -1 -1 -0 0 1 1 1 1 1 1 1 1 1 0 0 0 0 0 0 0 0 0 0 0 1 1 1 1 1 1 1 2 2 2 2 2 2 2 2
1 1 1 1 2 2 2 2 2 2 2 2 2 2 2 2 2 3 3 3 2 2 2 2 2 1 1 1 1 0 0 0 0 1 1 1 0 0 0 -0 -0 -0 0 0 1 0 -0 -1 -1 -1 -0 -0 0 0 0 0 0 0 0 0 0 0 0 0 0 0 0 0 0 0 0 0 0 0 0 1 1 1 1 1 1 2 2 2 2 2
1 1 1 1 1 1 1 2 2 2 2 2 2 2 2 2 2 2 2 2 2 2 2 2 2 1 1 0 0 -0 0 0 0 0 1 1 0 0 -0 -0 -0 -1 -0 -0 -0 -0 -1 -1 -1 -1 -1 -1 -1 -0 -0 0 0 0 0 0 0 0 0 0 0 0 0 0 0 0 0 0 -0 -0 0 0 0 0 1 1 1 1 1 2 2 1
0 0 0 0 0 0 1 1 1 1 1 1 2 2 2 2 2 2 2 2 2 2 2 2 2 1 1 1 1 0 -0 -0 0 0 1 1 1 0 -0 -0 -0 -0 -0 -0 -0 -0 -0 -1 -1 -1 -1 -2 -1 -1 -1 -0 -0 0 0 0 -0 -0 -0 -0 0 0 0 0 0 0 0 0 0 -0 -0 -0 -0 -0 -0 0 0 0 1 1 1 1
-0 -0 -0 -0 -0 -0 -0 -0 -0 0 0 1 1 1 2 2 2 2 2 2 2 2 2 2 2 2 2 2 1 0 -0 -0 0 0 1 1 1 1 0 -0 -0 0 0 0 0 0 0 -0 -1 -1 -1 -2 -2 -2 -1 -1 -0 -0 -1 -1 -1 -1 -1 -1 -0 -0 -0 -0 -0 -0 -0 -0 -0 -0 -1 -1 -1 -1 -1 -1 -0 -0 -0 -0 0 0
-0 -1 -1 -1 -1 -1 -1 -1 -1 -1 -1 -0 0 1 1 1 1 1 1 1 1 1 2 2 2 2 2 2 1 1 0 0 0 1 1 1 1 1 0 -0 0 0 1 1 1 0 0 -0 -0 -1 -1 -2 -2 -2 -2 -1 -1 -1 -1 -1 -1 -1 -1 -1 -1 -1 -0 -1 -1 -1 -1 -1 -0 -1 -1 -1 -1 -1 -1 -1 -1 -1 -1 -1 -0 -0
-1 -1 -1 -1 -1 -1 -1 -1 -1 -1 -1 -1 -1 -0 0 1 1 1 1 1 1 1 1 1 1 1 1 1 1 1 1 0 1 1 1 1 2 2 1 0 0 1 1 1 1 0 0 0 -0 -1 -1 -2 -2 -2 -2 -2 -2 -2 -2 -2 -2 -2 -2 -2 -1 -1 -1 -1 -1 -1 -1 -1 -1 -1 -1 -1 -0 -0 -0 -1 -1 -1 -1 -1 -1 -1
-1 -2 -2 -2 -2 -2 -2 -2 -2 -2 -1 -1 -1 -0 0 0 1 1 1 1 1 1 1 1 1 0 1 1 1 0 1 1 1 1 1 2 2 2 2 1 1 0 1 1 1 1 1 1 0 -0 -1 -2 -2 -2 -2 -2 -3 -3 -3 -2 -2 -2 -2 -2 -2 -1 -1 -1 -1 -1 -1 -1 -1 -1 -1 -1 -1 -1 -1 -1 -1 -1 -1 -1 -1 -1
-2 -2 -2 -2 -2 -2 -2 -2 -2 -2 -1 -1 -1 -0 -0 0 0 0 0 0 0 0 0 0 0 0 0 0 0 0 0 1 1 1 1 1 2 2 2 2 1 1 0 0 0 0 1 0 0 -0 -1 -2 -2 -2 -3 -3 -3 -3 -3 -3 -3 -3 -2 -2 -2 -2 -2 -1 -1 -1 -1 -1 -1 -1 -1 -1 -1 -1 -1 -1 -1 -1 -1 -1 -0 -0
-2 -2 -2 -2 -2 -2 -2 -2 -2 -2 -1 -1 -1 -1 -1 -1 -1 -1 -1 -1 -1 -0 -0 -0 -0 -0 -0 -0 -0 0 0 0 0 1 1 1 2 2 2 2 1 1 0 0 0 0 0 -0 -1 -1 -2 -2 -2 -2 -3 -3 -3 -2 -2 -3 -3 -3 -3 -2 -2 -2 -2 -2 -2 -2 -2 -2 -2 -2 -2 -1 -1 -1 -2 -2 -2 -2 -1 -1 -1 -1
-2 -3 -3 -3 -3 -2 -2 -2 -2 -2 -1 -1 -1 -1 -1 -1 -1 -1 -1 -1 -1 -1 -1 -1 -1 -1 -1 -1 -1 -1 -0 -0 -0 0 1 1 1 1 2 2 1 1 0 0 0 -0 -0 -1 -1 -1 -2 -2 -2 -2 -2 -3 -3 -2 -2 -3 -3 -3 -3 -3 -3 -3 -2 -2 -2 -2 -2 -2 -2 -2 -2 -2 -2 -2 -2 -2 -2 -2 -2 -2 -2 -1
-3 -3 -3 -3 -2 -2 -2 -2 -2 -2 -1 -1 -2 -2 -2 -1 -1 -1 -1 -1 -2 -1 -1 -1 -1 -2 -2 -2 -2 -2 -1 -1 -0 -0 0 0 1 1 1 1 1 1 1 0 -0 -1 -1 -1 -1 -2 -2 -2 -2 -2 -3 -3 -3 -3 -3 -3 -3 -3 -3 -3 -3 -3 -3 -3 -3 -2 -2 -2 -2 -2 -2 -2 -2 -2 -2 -2 -2 -2 -2 -2 -2 -2
-3 -3 -3 -2 -2 -2 -2 -2 -2 -2 -2 -2 -2 -2 -2 -2 -2 -1 -2 -2 -2 -2 -2 -2 -2 -2 -2 -3 -3 -3 -2 -1 -1 -0 -0 0 0 0 0 0 0 0 1 0 -0 -1 -1 -2 -2 -2 -2 -2 -2 -2 -3 -3 -3 -3 -3 -3 -2 -3 -3 -4 -3 -3 -3 -3 -3 -3 -3 -3 -3 -3 -2 -2 -2 -3 -3 -2 -2 -3 -3 -3 -3 -3
-3 -3 -2 -2 -2 -2 -2 -2 -2 -2 -2 -2 -2 -2 -2 -2 -2 -2 -2 -2 -2 -2 -2 -1 -2 -2 -2 -3 -3 -3 -3 -2 -2 -1 -1 -0 -0 0 0 0 0 0 0 0 -0 -1 -1 -2 -2 -2 -2 -2 -2 -3 -3 -3 -4 -4 -3 -3 -2 -3 -3 -3 -3 -3 -3 -3 -3 -3 -3 -3 -3 -3 -3 -3 -3 -3 -3 -3 -3 -3 -3 -3 -3 -3
-2 -2 -2 -2 -2 -2 -2 -2 -2 -2 -2 -3 -3 -2 -2 -2 -2 -2 -2 -2 -2 -2 -2 -1 -1 -2 -2 -3 -3 -3 -3 -3 -3 -2 -2 -1 -1 -0 -0 -0 -0 -0 -0 -0 -1 -1 -1 -2 -2 -2 -2 -3 -3 -3 -3 -3 -4 -4 -4 -3 -3 -3 -4 -4 -3 -3 -3 -3 -3 -3 -3 -3 -3 -3 -3 -3 -3 -3 -3 -3 -3 -3 -3 -3 -3 -3
-2 -2 -2 -2 -3 -3 -3 -3 -3 -3 -3 -3 -3 -3 -2 -2 -2 -2 -2 -2 -2 -2 -2 -2 -2 -2 -3 -3 -3 -3 -3 -3 -3 -3 -3 -2 -1 -1 -1 -1 -1 -0 -1 -1 -1 -2 -2 -2 -2 -2 -2 -3 -4 -4 -4 -4 -4 -4 -4 -4 -4 -4 -4 -4 -4 -4 -3 -3 -3 -3 -3 -3 -3 -3 -3 -4 -4 -4 -4 -4 -4 -4 -4 -4 -4 -4
-2 -3 -3 -3 -3 -3 -3 -3 -3 -3 -3 -3 -3 -3 -3 -3 -2 -2 -2 -2 -2 -2 -2 -3 -3 -3 -3 -3 -3 -3 -3 -4 -4 -4 -3 -3 -3 -2 -2 -1 -1 -1 -2 -2 -2 -2 -2 -2 -2 -2 -2 -3 -4 -5 -5 -4 -4 -4 -4 -4 -4 -4 -4 -4 -4 -4 -4 -4 -4 -3 -3 -3 -3 -3 -4 -4 -4 -4 -4 -4 -4 -4 -4 -4 -4 -4
-3 -3 -2 -2 -3 -3 -3 -3 -3 -3 -3 -3 -3 -3 -3 -3 -3 -2 -2 -2 -2 -2 -3 -3 -3 -3 -4 -4 -4 -4 -4 -4 -4 -4 -4 -4 -3 -3 -2 -2 -2 -2 -2 -2 -2 -3 -3 -3 -3 -2 -2 -2 -3 -4 -5 -4 -4 -4 -4 -4 -4 -4 -4 -4 -4 -4 -4 -4 -4 -4 -4 -4 -4 -4 -4 -4 -5 -5 -5 -5 -5 -5 -5 -5 -5 -5
-3 -3 -3 -3 -3 -3 -3 -3 -3 -3 -3 -3 -3 -3 -3 -3 -3 -3 -3 -3 -3 -3 -3 -3 -3 -4 -4 -4 -4 -4 -4 -4 -4 -4 -4 -4 -3 -3 -3 -2 -2 -2 -3 -3 -3 -3 -3 -4 -4 -4 -3 -3 -3 -4 -4 -4 -4 -4 -4 -4 -4 -4 -5 -5 -5 -5 -4 -4 -4 -4 -4 -4 -4 -4 -4 -4 -5 -5 -5 -5 -5 -5 -5 -5 -5 -5
-3 -3 -3 -3 -3 -3 -3 -3 -3 -4 -4 -4 -4 -4 -4 -3 -3 -3 -3 -3 -3 -4 -4 -4 -4 -4 -4 -4 -4 -4 -4 -4 -5 -5 -4 -4 -3 -3 -3 -2 -2 -2 -2 -3 -3 -4 -4 -5 -5 -5 -5 -5 -4 -4 -4 -4 -4 -4 -5 -5 -5 -5 -5 -5 -5 -5 -5 -5 -5 -5 -4 -4 -4 -4 -4 -5 -5 -5 -6 -6 -6 -6 -6 -6 -5 -5
Height
658 658 657 657 655 654 652 652 654 656 657 657 658 659 659 659 658 657 657 657 657 656 654 651 646 644 646 651 654 656 658 660 662 663 664 664 664 665 666 667 669 670 672 674 676 678 679 682 684 686 688 690 692 693 696 698 699 701 703 704 706 708 709 710 712 713 714 715 717 718 719 720 722 723 724 726 727 728 729 730 732 733 735 735 736 737
658 657 656 655 654 653 652 651 652 653 655 656 656 658 658 658 657 656 655 656 656 656 654 651 646 643 642 646 649 651 653 656 658 660 661 661 661 661 662 663 665 667 668 670 672 674 676 678 681 683 686 687 689 691 693 695 697 698 700 702 704 705 707 708 709 710 711 713 714 715 716 718 719 720 722 723 724 725 727 728 729 731 732 733 734 735
657 656 654 653 653 653 651 651 650 651 653 654 655 656 656 656 655 654 653 654 654 653 652 649 646 642 640 642 644 647 649 651 653 655 657 658 658 658 659 660 661 663 665 666 668 670 672 675 678 681 683 684 686 688 691 693 694 696 698 699 701 703 704 705 706 708 709 710 711 713 714 715 717 718 719 720 721 723 724 725 727 728 729 730 731 732
657 655 653 652 652 651 650 650 650 649 650 652 653 653 654 654 653 652 651 651 650 649 648 645 643 640 639 639 641 644 646 647 648 650 652 654 655 656 657 657 658 660 661 663 665 667 669 672 675 678 680 682 683 686 688 690 692 693 694 696 698 700 701 703 704 705 706 707 708 710 711 713 714 715 716 718 719 720 722 723 724 726 727 728 729 730
654 653 652 651 650 649 648 649 649 649 648 649 650 651 651 651 650 649 649 648 648 647 645 643 640 638 637 637 639 642 643 645 645 647 648 650 651 653 654 654 655 657 659 660 662 664 666 668 672 675 677 679 681 683 685 686 688 689 691 693 695 697 698 700 701 702 703 704 705 707 708 710 711 713 713 715 716 718 719 721 722 723 724 725 726 727
652 652 651 650 649 647 647 647 647 648 648 648 648 648 648 648 648 647 647 646 646 645 644 642 639 637 635 635 637 639 641 643 643 645 646 647 648 650 651 652 653 655 657 658 660 661 663 665 668 671 673 675 678 680 682 683 685 686 688 690 692 694 696 697 699 700 701 702 703 704 706 707 709 710 711 712 714 715 717 718 719 720 722 723 723 725
651 650 650 649 647 646 645 645 645 646 646 646 646 646 647 647 646 646 645 645 645 644 644 643 640 637 634 633 634 637 638 639 641 643 644 645 647 648 649 651 652 653 655 656 658 659 661 662 664 667 670 672 674 677 679 681 682 683 685 687 689 691 693 694 696 697 698 699 700 702 703 705 706 708 709 710 712 713 714 716 717 718 719 720 721 722
650 649 649 648 646 645 644 643 643 644 645 645 645 645 645 645 645 644 644 644 644 644 643 643 641 638 635 633 633 634 635 636 637 639 641 643 644 646 648 649 651 652 653 654 655 657 658 660 662 664 667 669 672 674 677 678 680 681 682 684 686 688 689 691 693 694 695 697 698 699 701 702 704 705 707 708 709 711 712 713 714 715 716 717 718 719
649 648 647 646 645 644 643 642 642 642 643 643 644 644 644 644 643 643 642 642 643 643 643 643 641 639 636 634 632 632 632 633 635 637 638 640 642 643 645 647 649 650 652 653 654 655 657 658 660 663 665 668 670 673 675 676 678 679 680 681 683 684 686 688 689 691 693 694 696 697 698 700 701 703 704 706 707 708 710 711 712 713 714 715 716 717
647 646 645 644 643 642 641 640 640 641 642 642 643 643 644 643 643 641 640 640 641 641 641 642 641 640 638 636 634 632 632 632 634 635 636 637 639 641 643 645 647 648 650 652 653 654 656 658 659 662 664 666 669 671 673 674 676 677 678 679 681 682 684 685 687 689 690 692 694 695 697 698 699 700 701 703 704 706 707 708 709 710 711 712 713 714
644 644 643 642 641 640 639 638 638 639 640 641 642 643 643 643 642 640 638 638 638 638 639 640 640 641 640 638 636 633 632 632 632 634 635 636 637 639 641 643 644 646 648 650 652 653 654 656 658 660 663 665 667 669 670 672 673 674 676 677 678 680 682 683 685 687 688 690 692 693 694 695 697 698 699 700 702 703 705 706 707 708 709 710 711 712
642 641 641 640 639 639 638 637 637 637 639 640 641 642 643 642 641 638 634 634 634 635 636 638 639 641 641 640 638 636 633 632 632 632 633 634 636 637 639 641 642 644 645 647 648 650 652 653 656 658 660 663 665 667 668 670 671 673 674 675 676 678 679 681 683 685 686 688 689 690 692 693 695 696 697 698 700 701 703 704 705 706 707 707 708 709
640 639 638 638 637 637 637 636 636 637 638 639 640 641 641 641 639 636 632 630 630 631 633 636 638 641 642 642 640 638 636 633 632 632 633 634 635 636 637 639 640 642 643 644 646 648 649 652 654 656 658 660 662 664 666 668 669 670 672 673 674 676 678 680 681 683 684 685 686 688 689 691 693 694 695 696 698 699 700 701 702 703 704 705 706 707
637 637 637 637 636 636 635 635 635 635 636 636 637 637 638 639 638 635 631 629 629 630 631 634 638 641 643 643 642 640 638 636 634 633 634 635 636 637 637 638 640 641 642 643 645 647 649 651 653 654 656 658 659 661 663 665 666 667 668 669 671 673 675 678 679 681 682 683 684 685 687 688 690 691 693 694 695 697 698 699 700 701 702 703 704 705
635 635 636 635 635 634 634 633 632 632 633 634 635 636 637 638 637 634 630 629 629 629 631 634 638 642 644 644 643 642 641 638 637 636 637 638 638 638 638 639 640 642 643 644 646 648 649 650 652 653 655 656 658 659 660 662 663 663 664 666 668 670 672 674 675 677 679 680 681 683 685 686 688 690 691 692 693 694 695 697 698 699 700 701 702 703
633 633 634 633 632 632 631 631 631 631 631 632 633 633 634 636 635 633 630 628 627 628 631 634 638 643 646 647 646 644 643 641 639 638 639 641 642 641 640 640 641 643 645 646 648 650 651 651 652 653 655 656 657 658 659 660 661 661 662 664 665 668 669 671 673 674 675 677 678 679 681 683 685 687 689 690 692 693 694 695 696 697 698 699 700 701
631 631 631 631 630 629 629 629 630 630 630 630 631 631 631 632 632 631 629 627 627 627 629 632 637 643 647 648 648 646 645 644 643 642 642 643 644 644 643 642 643 645 647 648 650 652 652 653 653 655 656 657 658 658 659 660 661 661 662 663 664 666 668 669 671 672 673 675 676 677 678 680 682 683 685 687 689 690 692 693 694 696 697 698 698 699
629 629 629 628 627 627 627 628 628 629 628 629 629 629 629 629 629 629 629 628 627 627 629 631 635 640 644 647 648 648 646 646 646 645 644 646 647 647 645 644 644 646 648 650 652 653 654 655 655 656 658 658 659 659 660 661 662 662 663 663 665 666 668 669 670 671 673 674 675 676 677 678 679 681 683 684 685 687 688 689 691 692 694 695 697 698
627 626 626 626 625 625 626 626 627 627 627 627 627 627 627 628 628 629 629 629 628 628 629 632 635 638 642 646 648 647 646 648 648 647 647 648 650 649 648 647 647 647 649 652 654 655 656 657 658 659 659 659 660 660 661 662 663 663 664 665 666 667 668 670 671 672 673 674 675 676 678 678 679 680 681 682 683 684 686 687 689 690 692 693 695 696
624 623 623 623 623 624 624 624 625 625 624 624 624 625 626 627 627 628 629 630 630 630 630 632 635 639 642 644 646 647 646 648 648 648 649 651 652 652 651 650 649 649 651 654 656 657 658 659 660 661 661 661 661 661 662 663 664 665 666 667 668 669 670 671 672 673 674 676 677 678 679 680 681 682 683 683 684 685 686 688 689 691 693 694 696 697
621 621 620 621 622 622 622 622 623 623 623 623 623 624 625 626 627 628 629 630 631 631 632 633 636 639 641 643 645 646 646 647 648 649 650 653 654 654 653 652 651 651 653 656 658 659 660 661 662 663 663 663 663 663 663 664 665 666 668 669 670 671 672 673 674 675 676 677 678 679 681 682 683 683 684 685 686 687 688 690 691 693 695 697 698 700
619 618 618 619 620 620 620 621 621 622 622 622 622 623 624 625 627 628 629 630 631 632 633 635 637 639 641 643 644 646 647 648 648 648 650 653 656 657 656 654 653 653 655 658 660 661 662 663 664 665 665 665 664 664 665 665 666 668 669 670 672 673 674 675 676 676 677 678 679 681 682 683 684 685 686 687 688 690 691 692 694 696 698 699 701 703
618 617 618 618 619 619 619 620 620 621 621 622 622 623 624 625 626 627 629 630 631 633 634 636 638 640 641 643 645 646 647 648 648 648 649 654 658 659 658 657 656 656 658 661 662 663 663 664 665 667 667 667 667 667 667 667 668 669 670 672 673 675 676 677 678 678 679 680 682 683 684 685 686 687 688 689 690 691 693 694 695 697 699 701 702 704
617 617 617 617 618 618 619 619 619 620 621 622 623 624 624 625 626 627 629 630 631 633 635 637 639 641 643 644 646 647 648 648 648 648 649 655 659 661 660 659 658 659 662 663 664 664 665 665 666 668 668 668 669 669 669 669 670 670 672 673 674 676 678 679 680 681 682 683 684 685 686 687 688 689 689 690 691 692 694 695 697 698 700 702 703 705
616 616 617 617 617 618 618 618 618 619 621 622 623 623 624 625 626 628 629 631 632 634 636 637 640 643 645 646 647 648 648 648 648 648 649 654 659 662 661 661 661 662 664 666 666 666 666 666 667 668 669 670 671 671 672 672 672 673 673 674 676 677 679 680 682 683 684 686 687 688 688 689 690 691 691 692 693 693 695 697 698 700 702 703 704 706
615 616 616 617 617 618 617 617 617 619 620 622 622 623 624 625 627 629 631 632 634 635 636 638 641 643 645 646 648 649 649 649 649 648 649 653 659 663 663 663 662 663 665 667 668 668 667 668 668 669 670 672 673 673 674 674 674 675 675 676 677 678 680 682 683 685 687 689 690 691 691 692 692 693 693 693 694 695 696 698 700 701 703 704 706 707
616 616 617 617 618 617 616 616 617 619 621 622 623 623 624 625 627 629 632 633 634 634 636 638 641 644 646 647 648 650 650 651 651 651 651 653 657 662 665 664 664 664 666 668 669 669 669 669 670 671 672 673 675 676 676 676 676 677 677 678 679 680 682 683 686 688 690 692 693 693 694 694 694 695 695 696 696 697 698 699 701 702 704 705 707 708
617 617 617 618 617 617 615 616 618 620 621 622 624 625 625 626 627 629 632 632 633 634 635 637 640 643 646 648 650 651 651 652 653 653 653 653 657 662 665 665 665 665 666 669 670 671 670 671 672 673 674 675 676 677 678 678 678 678 679 680 681 683 684 686 688 690 693 694 695 696 696 696 697 697 698 698 698 699 700 701 702 703 704 706 707 709
617 618 618 618 618 616 615 617 619 621 622 623 625 626 627 627 628 629 630 632 633 634 636 637 640 642 645 648 650 652 653 653 654 654 654 655 658 661 664 665 665 665 666 669 671 672 673 673 674 675 675 676 677 678 678 679 680 681 682 683 684 686 687 689 691 693 695 696 698 698 698 698 698 699 699 700 701 701 702 703 703 704 705 707 708 709
617 618 618 618 617 617 616 618 620 622 623 624 626 627 628 629 629 630 631 632 633 634 636 638 640 643 645 648 651 654 655 655 655 654 655 656 658 661 663 664 665 665 666 668 671 674 676 676 677 677 677 678 678 679 680 681 682 683 684 685 687 688 690 692 693 695 697 698 699 700 700 700 700 700 701 702 702 703 704 704 705 706 706 707 708 710
616 616 616 616 616 616 617 618 620 622 623 625 627 628 629 630 631 631 632 633 634 635 636 638 640 642 644 646 649 653 656 656 655 655 655 656 658 660 661 663 664 664 664 665 668 673 678 679 680 679 679 679 680 681 682 683 684 685 686 687 689 691 693 694 695 697 698 699 700 701 701 701 701 701 702 703 704 705 705 706 706 707 707 708 709 710
615 615 615 615 615 616 617 618 620 622 623 625 627 628 630 631 632 633 634 635 635 636 637 638 641 642 643 643 646 649 653 655 655 655 655 656 658 660 661 662 663 664 664 664 665 668 674 679 682 682 681 681 682 683 684 685 686 687 688 689 691 692 694 695 696 697 698 700 701 701 702 702 702 703 703 704 705 706 706 707 708 708 708 709 710 711
615 615 615 616 616 617 618 619 621 622 624 626 627 629 631 632 633 634 635 636 637 637 638 640 641 643 644 644 645 648 651 653 655 655 656 656 658 661 662 663 663 664 665 665 664 665 670 676 680 682 683 683 684 685 687 688 688 689 690 691 692 693 695 695 696 697 698 699 700 701 702 702 703 703 704 705 706 707 707 708 708 709 710 710 711 712
615 616 616 617 617 618 620 621 623 624 626 627 629 630 632 633 634 635 636 637 638 639 640 641 642 643 643 645 647 649 651 653 655 656 656 657 658 660 662 663 664 664 665 666 667 668 670 674 678 681 683 685 686 687 688 689 690 691 692 693 693 694 695 696 697 698 698 699 700 700 701 702 703 704 705 706 706 707 708 709 709 710 711 711 712 713
616 617 617 618 619 620 622 624 625 626 627 629 630 631 632 634 635 636 637 638 639 640 642 642 643 643 643 644 646 649 652 654 655 656 657 657 658 660 662 663 664 664 664 666 668 670 673 676 678 680 683 685 688 689 690 691 692 693 693 693 694 695 696 697 697 698 698 699 700 700 701 702 703 704 705 706 707 708 709 710 710 711 712 713 713 714
617 619 620 620 621 623 625 626 627 628 629 630 631 632 633 635 636 637 638 639 640 641 642 643 644 644 644 644 645 648 651 653 655 657 658 658 658 659 662 663 664 664 665 666 668 670 673 677 679 680 682 685 688 690 691 692 692 693 694 694 695 696 697 698 698 698 699 699 700 701 702 703 704 705 706 707 708 709 710 711 712 713 713 714 715 716
619 621 622 623 624 625 627 628 629 630 631 632 632 633 634 635 637 638 640 641 642 642 643 644 644 645 646 646 647 648 651 653 655 657 658 659 659 660 661 663 664 665 665 666 668 670 672 676 679 681 683 685 687 690 692 692 693 693 694 695 696 697 698 698 699 699 700 700 701 702 703 704 705 706 707 708 709 710 711 712 713 713 714 715 716 717
621 622 624 625 626 627 628 629 630 631 632 632 633 634 635 636 637 639 641 642 643 643 643 644 645 646 647 648 649 650 652 654 656 658 659 660 660 660 661 663 665 666 666 667 668 669 671 674 678 681 684 686 688 689 691 692 693 694 695 696 697 698 698 699 700 701 701 702 703 703 705 706 707 707 708 709 710 711 711 712 713 714 715 716 717 718
622 624 626 627 627 628 629 630 631 632 633 633 634 635 636 637 638 640 642 643 643 644 644 644 645 647 648 649 650 652 653 655 657 658 660 661 662 662 663 664 666 667 668 669 669 670 671 673 676 679 683 686 688 690 691 692 693 694 696 697 698 699 700 701 702 702 703 703 704 705 706 707 708 708 709 710 711 712 712 713 714 715 715 716 717 718
624 625 627 628 629 629 630 631 632 633 634 635 635 636 637 638 640 642 643 644 645 645 645 645 646 647 649 650 652 653 655 657 658 660 661 663 664 664 665 666 667 668 670 671 672 673 673 675 677 679 681 684 687 690 692 693 694 695 696 698 699 701 702 703 703 704 705 705 706 706 707 708 709 709 710 711 712 712 713 714 714 715 716 717 717 718
625 626 628 629 630 630 631 632 633 634 635 636 637 637 639 640 641 643 644 645 646 647 647 647 647 648 650 652 653 655 657 658 659 661 663 664 665 666 667 668 668 670 671 672 673 674 675 677 678 680 682 684 687 689 692 694 695 696 697 698 700 702 703 704 705 706 706 707 707 708 708 709 710 710 711 712 712 713 714 714 715 716 717 717 718 718
626 627 628 630 631 632 633 633 634 635 636 637 638 639 641 642 643 644 645 647 648 648 648 648 648 650 652 653 655 657 658 659 661 663 664 665 667 668 669 669 670 671 672 673 675 677 678 679 680 682 684 685 688 690 693 695 697 698 698 699 701 703 704 706 706 707 708 708 708 709 710 710 711 711 712 713 713 714 714 715 716 716 717 718 718 718
627 628 629 631 632 633 634 635 636 637 637 638 639 641 642 643 644 645 646 647 648 649 649 649 649 651 653 655 657 659 660 661 663 664 665 667 668 669 670 671 672 673 674 675 676 678 680 681 683 684 686 687 688 690 693 696 698 699 700 701 702 703 705 707 708 708 708 709 710 710 711 711 712 712 713 713 714 714 715 716 716 717 718 718 718 719
627 629 630 632 633 634 635 636 637 638 638 640 641 643 644 645 646 646 647 648 649 649 650 650 651 652 654 657 659 661 662 663 664 665 667 668 669 670 672 673 674 675 676 676 678 679 681 683 685 686 688 688 690 691 693 696 698 699 701 702 702 703 705 707 708 709 709 710 711 711 711 712 712 713 713 714 714 715 716 716 717 718 718 719 719 719
628 630 631 633 634 635 636 637 638 639 640 641 643 644 646 646 647 647 648 648 649 650 651 651 652 653 656 659 661 662 663 665 666 667 668 669 671 672 673 674 675 676 677 678 679 680 682 684 686 688 689 690 692 693 695 696 698 700 702 703 703 704 705 707 708 709 710 711 711 712 712 713 713 713 714 714 715 716 717 717 718 718 719 719 720 720
629 631 632 634 635 636 637 638 639 640 641 643 644 646 647 648 648 648 649 649 650 652 653 653 653 655 658 660 662 663 665 666 668 669 670 671 672 673 674 675 677 678 679 680 681 682 683 685 687 688 690 692 693 695 696 698 699 700 702 703 704 705 707 708 709 710 711 711 712 712 713 713 713 714 714 715 716 717 717 718 718 719 719 720 720 721
629 631 633 634 635 637 638 639 640 641 643 644 646 647 648 649 649 650 650 651 651 653 654 654 655 657 659 662 663 664 666 668 669 671 672 673 674 675 676 677 678 679 680 681 683 684 686 687 688 689 691 692 695 697 698 699 700 701 703 704 705 706 707 708 710 711 711 712 712 713 713 714 714 714 715 715 716 717 718 718 719 719 720 720 721 721
630 632 633 634 636 637 639 640 641 642 644 646 647 648 649 650 650 651 652 652 653 654 655 656 657 659 661 663 665 666 667 669 671 672 673 675 676 677 678 679 680 681 682 683 684 686 687 689 690 692 692 693 695 697 699 700 701 703 703 704 705 706 708 709 710 711 712 712 713 713 714 714 714 715 715 716 717 718 718 719 719 720 720 721 721 721
632 633 634 635 636 638 639 641 642 643 645 647 648 650 651 651 652 652 653 653 654 655 656 658 659 661 663 665 667 668 669 671 672 674 675 677 678 678 679 680 681 682 683 685 686 688 689 691 692 694 695 695 696 698 700 701 703 704 705 705 706 707 708 709 710 711 712 713 713 713 714 714 715 715 716 716 717 718 718 719 719 720 720 721 721 722
633 635 636 637 637 639 641 642 643 644 646 648 649 650 651 652 653 653 654 655 656 657 658 659 661 662 665 667 669 670 671 673 674 676 677 678 679 680 681 682 682 683 685 686 688 689 691 693 694 696 698 698 699 699 700 702 703 705 706 707 707 708 709 710 711 712 712 713 713 714 714 715 715 716 716 716 717 718 718 719 720 720 720 721 721 721
636 637 637 638 639 641 642 643 644 646 647 648 650 651 652 653 654 655 656 656 657 659 660 661 663 664 667 669 671 672 673 674 676 677 678 679 680 681 682 683 683 684 685 687 689 690 692 695 697 699 700 701 702 703 703 703 704 705 707 708 708 709 709 710 711 712 713 713 713 714 714 715 715 716 716 717 717 718 719 719 720 720 721 721 721 721
Wind_Speed
25 27 29 29 26 24 22 22 21 21 22 23 24 25 26 27 28 30 33 36 38 39 41 44 48 50 52 54 56 57 58 57 58 59 61 61 60 59 58 58 58 58 59 59 59 59 59 59 58 57 57 56 54 52 50 49 49 48 48 47 47 47 47 47 47 47 46 46 46 47 47 47 47 46 45 45 45 46 46 45 42 39 35 31 29 27
24 26 27 27 26 23 22 22 22 22 23 24 25 26 27 28 28 29 30 32 35 38 39 41 44 47 52 58 60 61 59 58 58 59 61 61 60 59 58 57 57 57 57 58 58 59 59 58 57 56 56 55 52 50 48 48 48 49 48 48 47 47 47 46 46 46 46 46 46 47 47 47 47 47 47 47 47 47 46 44 41 37 34 32 30 29
21 23 25 26 25 23 22 22 22 23 24 25 26 27 27 28 28 29 29 32 35 39 40 40 42 45 48 55 60 62 62 61 61 62 63 62 61 59 58 58 57 57 57 57 58 58 58 57 55 54 53 52 50 47 46 46 47 49 49 49 48 48 47 47 46 46 45 45 45 46 47 47 47 48 48 48 47 45 43 41 38 36 33 32 31 31
19 20 24 26 27 26 24 22 21 21 21 23 24 25 25 26 26 27 28 31 35 38 37 36 38 42 44 47 50 54 58 61 62 63 63 62 59 57 57 57 58 58 58 58 58 58 58 56 54 53 52 51 50 48 46 47 48 49 50 50 49 49 48 47 47 46 45 44 44 45 45 46 47 48 48 47 44 42 39 38 36 34 33 33 33 33
19 20 24 26 26 26 25 24 22 21 20 20 21 22 22 22 22 23 25 28 30 32 32 30 30 34 40 42 42 43 46 50 55 58 59 58 56 54 53 54 55 57 57 57 57 57 58 56 55 53 53 52 50 49 48 48 49 50 50 50 50 49 49 48 47 46 45 44 44 44 44 45 46 47 47 44 41 38 37 36 35 34 34 34 34 34
20 21 25 25 24 23 22 22 22 22 20 20 19 19 19 18 18 19 22 24 26 27 27 23 18 20 30 37 39 38 38 42 46 49 52 53 52 51 49 48 49 51 52 52 53 55 56 56 55 54 53 53 51 49 49 49 50 50 51 50 50 50 49 48 47 46 45 44 43 43 43 44 45 46 45 43 40 38 37 37 36 35 35 35 34 34
19 22 24 24 22 20 18 19 20 20 18 18 17 17 16 15 14 15 17 18 20 21 20 17 12 10 17 27 33 34 33 36 39 42 45 47 48 47 45 44 44 45 46 47 49 51 52 53 53 53 52 51 50 50 49 49 50 51 51 51 50 50 49 48 47 46 45 43 43 43 43 44 44 45 44 42 40 39 38 37 37 36 36 35 35 35
19 21 22 21 18 16 15 16 17 18 17 16 16 15 14 13 12 11 11 13 14 15 14 13 11 8 7 16 22 24 26 29 31 34 38 41 42 43 44 44 44 44 45 46 47 48 49 49 50 50 49 49 49 49 49 48 49 50 51 51 50 49 48 47 46 44 43 43 42 43 43 44 44 44 43 42 40 39 38 38 37 37 36 36 36 35
18 19 20 20 17 13 12 12 14 17 17 17 17 16 14 13 11 9 7 7 8 9 9 9 9 8 5 4 10 14 18 22 25 27 30 32 35 39 42 44 45 47 48 49 50 50 50 50 49 49 48 49 50 50 50 48 48 49 50 50 49 47 44 43 42 41 41 41 42 43 44 44 44 44 42 41 39 39 38 38 37 37 37 37 37 36
20 20 19 21 20 16 10 8 12 16 16 16 17 16 14 13 12 10 8 5 3 3 4 3 6 9 8 5 4 8 12 16 18 19 20 22 25 29 33 37 42 45 47 49 50 50 51 51 51 50 50 50 50 50 49 47 47 47 47 46 44 42 40 39 38 38 38 40 41 43 44 43 43 41 40 39 38 37 37 37 37 37 37 37 37 37
19 20 18 18 19 17 12 9 11 14 15 15 15 15 15 14 12 11 10 8 7 6 4 3 5 9 11 9 7 8 10 13 14 14 14 15 17 19 22 25 28 31 34 36 38 39 41 44 46 47 47 47 47 47 46 45 45 45 44 42 40 38 37 37 36 37 38 40 42 42 42 41 39 38 37 36 36 36 37 37 37 37 37 37 37 37
16 16 15 14 13 12 11 10 12 14 15 13 10 9 11 13 11 10 12 11 11 13 12 9 8 9 11 11 11 11 13 15 16 15 14 15 16 17 17 18 18 19 20 22 22 24 27 30 33 37 39 41 41 42 42 43 43 42 41 38 36 35 36 37 38 39 40 42 42 41 40 38 37 36 36 35 36 36 37 37 37 37 37 37 37 37
16 14 12 12 11 10 10 10 11 13 13 11 8 5 8 10 11 10 12 14 16 17 17 15 14 12 12 11 12 13 15 18 19 20 19 18 18 18 19 19 19 19 19 19 18 17 18 21 24 28 31 33 34 36 38 39 39 39 37 35 34 35 36 38 41 42 44 44 43 41 39 38 37 37 37 37 37 37 37 37 37 37 37 37 37 37
13 12 10 9 8 9 10 11 10 10 11 13 12 11 11 11 10 11 13 15 18 20 20 20 18 15 13 13 14 14 15 18 21 22 21 21 21 22 22 22 21 20 20 19 18 16 16 18 20 22 24 26 29 31 33 34 34 34 34 33 34 35 36 39 41 43 44 44 43 41 40 39 38 38 38 38 37 37 37 37 37 37 36 37 37 37
9 8 5 4 5 7 10 12 12 12 14 15 15 15 14 12 11 12 13 14 17 20 22 21 19 17 15 14 14 15 15 17 21 25 25 25 24 24 25 25 25 23 22 21 20 18 16 16 17 17 18 20 23 26 28 29 29 30 31 32 34 34 35 36 37 38 38 39 40 40 39 38 38 38 37 37 37 37 37 37 36 36 36 36 37 37
9 7 4 4 5 7 12 13 13 14 14 15 15 16 15 13 11 12 13 14 16 17 17 15 12 11 11 13 15 16 17 17 20 24 25 25 25 26 27 29 29 28 27 27 26 24 21 20 19 17 16 15 17 19 21 22 23 25 26 28 30 31 31 30 30 30 30 29 30 32 33 33 33 33 33 34 34 35 35 35 36 36 37 37 38 38
11 8 6 5 5 8 13 14 14 13 14 14 15 17 16 14 13 12 13 13 13 12 11 7 5 4 3 8 14 18 20 18 19 22 25 24 24 26 29 31 32 31 31 30 29 28 27 26 25 23 21 19 17 17 17 17 18 18 20 21 22 23 23 22 22 22 21 19 19 20 21 22 23 23 24 24 25 26 27 29 31 32 34 36 37 37
12 11 9 7 7 9 12 13 13 13 14 14 15 15 15 15 13 12 12 12 10 9 8 5 4 4 3 2 4 13 23 19 18 20 22 22 22 25 29 32 33 33 32 31 30 29 29 29 28 27 25 23 21 20 19 19 18 18 18 19 19 19 19 19 19 19 18 18 17 17 18 18 18 18 18 18 17 18 19 20 20 21 21 22 24 25
13 14 12 10 10 11 12 13 14 14 14 15 15 14 13 13 13 12 11 11 11 10 8 6 4 4 5 6 10 16 22 20 19 20 19 18 19 22 26 29 32 33 32 31 30 30 30 29 28 27 26 25 24 23 22 21 21 20 20 19 19 19 19 18 19 19 18 19 19 19 20 21 22 22 22 22 22 22 22 21 21 21 21 20 20 20
14 15 15 14 13 12 12 14 15 16 16 17 17 16 14 13 13 12 11 10 10 11 12 10 8 8 9 11 14 17 21 21 20 19 17 17 17 20 23 26 29 31 31 30 30 30 30 29 28 27 26 26 25 25 24 24 23 22 22 21 20 20 19 19 18 18 19 19 19 19 20 21 22 23 24 25 26 27 28 28 28 28 27 27 26 26
15 16 18 17 14 12 12 14 16 17 18 18 17 16 15 14 13 12 11 11 11 12 13 12 11 12 14 15 15 17 20 20 18 15 14 14 16 18 20 23 27 29 29 29 29 30 29 29 28 27 27 26 27 27 26 26 26 25 24 24 23 23 22 22 22 21 21 21 21 21 22 22 23 23 24 25 26 27 27 27 27 27 26 26 26 25
16 16 18 19 17 16 15 16 17 18 18 19 17 16 15 15 13 12 12 13 13 13 14 14 15 17 19 18 16 17 20 21 19 15 13 10 12 15 19 22 25 26 27 28 28 29 30 29 28 27 26 27 27 28 28 28 28 28 27 27 26 26 26 25 25 25 25 25 25 25 25 25 26 26 26 26 26 26 25 24 23 22 22 21 21 21
19 17 17 18 18 18 17 18 18 18 19 19 18 17 16 16 15 14 15 15 16 17 19 20 21 21 20 18 17 18 20 20 20 18 13 7 7 12 18 22 24 25 26 26 27 29 30 30 29 28 27 27 27 28 29 29 29 29 29 28 28 28 28 27 27 27 27 27 27 27 27 27 26 26 26 25 24 23 22 21 20 19 19 18 18 19
19 17 16 16 17 18 18 18 19 19 18 18 17 16 16 17 17 17 18 20 21 23 24 24 22 20 18 18 17 17 17 18 19 18 14 9 7 11 16 21 23 24 24 26 27 29 30 30 30 28 27 26 27 27 28 28 28 29 29 28 28 28 27 27 27 26 26 26 26 25 25 25 24 24 23 22 21 21 20 19 19 19 19 19 19 20
18 17 16 16 17 18 19 19 20 20 19 18 17 16 17 18 19 20 22 24 25 25 24 22 17 13 13 14 14 13 14 18 20 20 16 10 9 12 16 20 22 22 22 25 27 29 29 30 29 29 28 26 26 26 26 27 27 27 27 27 27 26 26 25 25 24 24 23 23 23 23 22 22 22 22 21 21 21 20 20 20 20 21 21 21 21
16 15 15 16 16 18 18 19 19 20 20 19 18 18 20 21 23 23 23 23 23 22 19 14 9 7 8 10 10 11 13 18 22 23 20 15 11 12 15 20 22 23 23 25 26 28 28 28 29 28 28 26 25 25 25 26 27 27 27 26 26 25 25 24 24 23 23 22 22 22 22 22 22 22 22 22 22 22 22 22 22 22 22 22 21 21
13 13 14 15 17 18 18 18 19 19 19 19 19 20 22 24 24 22 18 18 19 19 15 8 5 6 6 7 7 9 13 16 20 23 24 22 16 12 13 18 22 24 24 24 25 26 26 27 27 28 27 26 25 24 25 26 26 27 27 27 26 25 25 24 23 23 22 22 21 21 21 22 22 22 21 21 21 21 21 21 21 21 21 21 21 21
13 15 16 17 17 18 18 18 18 18 18 18 18 20 22 24 22 17 15 17 18 17 14 9 6 5 3 3 5 9 14 16 18 21 24 22 16 12 15 20 23 24 24 22 24 26 27 26 26 26 26 26 26 25 25 25 26 26 26 26 26 25 25 24 23 22 21 21 20 20 20 21 21 21 20 20 20 20 19 19 19 19 20 20 21 21
17 17 18 18 18 19 19 18 17 17 17 17 18 19 21 22 20 18 18 19 19 16 13 10 8 6 5 7 8 10 12 14 17 20 22 19 15 15 20 22 23 24 22 18 19 23 24 25 25 25 25 26 27 26 26 26 26 26 26 26 25 25 24 23 22 21 21 20 19 19 19 19 19 19 19 18 18 17 17 17 17 17 18 19 20 21
21 21 20 20 20 21 22 21 19 18 17 17 17 18 19 19 19 20 21 21 19 16 14 12 12 11 10 9 7 6 5 9 15 20 21 16 13 16 21 22 22 21 19 13 9 9 13 18 22 24 25 26 27 27 27 26 26 26 26 26 25 24 23 23 22 21 20 20 19 18 18 17 17 17 17 17 16 16 15 15 15 16 17 18 20 20
23 23 23 23 24 24 25 23 22 20 18 17 16 16 16 17 18 19 20 19 18 17 16 15 15 15 15 8 4 2 2 9 16 20 20 14 13 16 20 18 17 16 15 10 5 2 3 8 14 21 25 26 26 27 26 26 26 26 26 26 25 24 23 23 23 22 21 20 19 19 18 17 17 16 16 16 15 14 14 13 14 15 16 18 19 20
23 24 24 24 25 25 24 23 22 21 19 18 17 16 16 17 18 18 17 17 17 18 18 18 17 16 15 9 5 4 4 12 18 20 20 15 14 16 19 16 13 11 11 12 10 6 4 2 7 16 24 25 25 25 25 24 24 24 24 25 24 23 22 22 22 22 22 21 20 20 19 18 17 16 16 15 15 14 13 13 12 13 14 16 18 19
22 23 23 23 23 23 23 22 21 20 20 19 18 17 17 17 18 17 17 17 17 18 18 18 16 14 11 10 9 8 11 16 19 20 21 19 16 14 15 14 13 12 12 14 14 13 9 7 8 14 20 23 24 23 23 22 22 22 22 23 23 22 21 20 21 21 21 21 20 20 19 19 18 17 16 15 15 14 13 12 12 12 12 14 16 17
21 22 22 22 22 22 22 21 21 21 20 20 19 19 18 18 18 17 17 18 18 19 18 16 15 14 12 12 11 12 14 17 19 21 23 22 17 14 15 14 14 14 14 14 15 16 14 14 13 13 15 19 21 22 21 21 20 20 19 20 20 20 19 18 18 18 18 18 18 18 18 18 18 17 16 15 15 14 13 13 12 11 11 11 13 15
20 20 20 21 22 22 21 21 21 21 21 21 20 20 19 19 18 18 18 19 19 19 18 17 16 16 16 15 13 13 14 17 20 21 23 23 20 17 15 13 14 15 14 13 13 13 13 15 16 14 12 13 16 19 20 19 19 18 17 17 17 17 16 15 15 15 15 16 16 16 16 16 16 16 16 16 15 14 14 13 12 12 11 11 11 11
18 18 18 19 20 20 20 20 21 21 21 22 22 21 20 20 19 19 19 19 19 18 17 16 16 17 18 20 19 18 19 20 20 21 22 23 22 19 14 12 14 16 16 15 15 15 14 13 14 15 13 10 10 13 17 18 18 17 17 17 16 16 15 14 13 13 14 14 15 14 14 14 14 15 15 15 14 14 14 14 13 13 12 11 11 10
17 17 17 17 18 18 18 19 20 20 21 22 22 22 22 21 20 20 19 19 18 18 17 17 17 18 20 23 24 24 23 22 21 21 21 22 22 20 16 14 15 17 17 17 18 18 17 14 12 12 11 9 7 9 13 18 19 18 18 17 16 16 15 14 13 13 14 14 14 14 13 13 13 13 13 13 13 13 14 14 13 13 12 12 11 11
16 16 15 16 17 17 17 18 19 20 21 22 23 23 23 23 22 21 20 19 19 19 20 20 20 21 22 23 24 24 23 22 21 20 20 20 21 20 19 17 16 17 18 19 20 20 19 13 9 6 5 7 9 12 15 18 19 18 18 17 16 16 15 14 13 13 14 15 15 14 13 13 12 12 12 11 11 11 12 13 12 12 12 11 11 11
15 14 14 15 16 16 17 18 19 20 22 23 24 24 24 24 23 22 22 22 22 22 23 24 25 25 24 24 23 22 21 20 19 18 18 18 18 18 19 18 17 17 18 19 20 20 18 14 10 7 5 7 10 14 16 17 18 19 19 18 17 16 15 14 13 13 14 14 15 14 14 13 13 12 12 11 11 11 12 11 11 10 10 10 10 10
14 14 15 15 17 18 19 20 22 23 23 24 24 24 25 25 25 24 24 24 25 26 26 27 27 26 25 23 21 20 18 17 16 16 15 15 15 15 16 17 18 18 18 18 17 17 15 14 14 13 13 12 11 12 13 15 17 19 18 16 15 14 14 13 13 12 12 13 14 14 14 14 13 13 13 12 12 12 12 11 11 9 8 8 9 10
15 15 16 17 19 21 22 23 24 24 24 24 24 25 25 26 26 26 26 26 26 26 26 27 27 26 25 23 20 18 16 15 14 13 13 13 12 11 12 14 17 19 19 17 16 15 15 15 15 15 16 16 15 15 15 15 16 17 17 15 15 15 15 13 12 11 11 12 13 13 14 14 14 13 13 13 12 12 11 11 11 10 9 8 8 8
16 16 17 19 20 22 23 24 24 24 24 25 25 24 24 24 24 24 24 24 23 23 25 26 27 27 26 24 22 19 17 15 13 12 11 11 10 9 10 12 15 18 19 18 17 16 16 16 17 17 17 18 17 15 14 15 15 17 18 19 19 17 15 13 11 10 10 11 12 12 13 13 13 13 13 13 12 12 11 11 11 10 10 9 8 8
17 18 19 20 21 23 23 24 24 24 24 24 23 22 22 21 22 22 22 21 21 21 22 23 25 25 24 23 22 21 19 17 15 14 13 11 10 10 10 11 14 16 18 18 18 17 16 17 17 17 18 19 18 16 15 15 16 17 18 19 18 14 10 11 11 10 10 10 11 12 12 12 12 12 12 12 12 12 12 11 11 11 10 10 9 9
20 21 21 21 22 22 22 22 22 22 22 22 22 21 20 21 22 22 22 21 21 21 21 22 24 24 22 20 20 21 21 20 18 17 15 14 13 12 12 12 13 15 16 17 18 18 18 18 18 18 18 19 18 17 17 16 16 16 16 15 14 13 12 12 12 12 10 11 11 11 11 11 11 11 11 12 12 12 12 11 11 11 10 9 9 9
22 22 21 20 20 20 20 20 20 21 21 21 21 20 20 20 21 22 22 21 21 20 20 21 21 20 18 17 18 19 20 21 20 19 17 16 14 13 13 13 13 14 14 15 17 19 20 19 19 19 19 19 18 18 17 17 17 16 14 14 14 15 16 16 14 12 11 11 10 10 9 9 9 9 11 11 12 11 11 11 11 11 10 9 9 9
21 20 19 19 19 18 18 19 20 21 21 21 20 19 19 20 21 21 21 21 20 19 18 19 18 17 15 15 15 16 17 19 20 20 19 17 16 14 14 13 13 13 14 15 16 17 19 20 21 20 20 19 18 17 17 17 17 16 16 15 16 17 17 15 13 11 11 10 10 9 8 7 7 9 11 12 12 11 11 10 10 10 9 9 8 8
19 18 18 18 18 18 19 19 20 20 20 19 19 18 18 19 19 19 19 20 19 18 18 18 19 18 16 15 15 15 16 16 17 19 20 19 18 17 16 16 15 15 16 17 18 19 19 19 20 20 20 18 16 15 15 17 17 17 18 18 18 18 17 15 13 11 9 9 8 7 7 7 8 9 11 12 12 12 11 10 10 9 8 8 7 8
18 18 18 18 18 18 18 18 19 19 18 18 18 17 17 18 18 18 18 19 19 19 18 18 18 18 17 16 15 16 16 16 17 18 20 21 21 21 21 21 21 21 21 21 21 21 20 19 18 17 18 18 16 15 15 16 17 18 19 19 19 18 17 14 12 10 8 7 7 6 6 7 9 11 12 13 13 13 12 11 10 9 8 7 7 7
18 17 17 18 18 17 17 17 18 18 18 18 17 17 16 17 18 19 19 19 19 18 18 18 17 17 16 15 15 16 17 17 18 19 20 21 22 24 24 25 25 25 25 25 24 23 21 20 18 16 15 17 18 19 19 18 18 18 18 18 18 17 16 14 11 9 8 7 6 6 7 8 9 10 11 14 15 14 13 12 10 9 8 7 6 6
17 17 17 17 17 17 17 17 18 18 17 17 17 17 17 18 18 19 19 19 19 18 18 18 17 17 16 15 15 16 17 17 17 18 19 20 22 23 25 25 26 25 25 25 24 23 22 21 19 17 16 15 16 19 20 20 20 19 18 17 17 16 15 14 11 9 8 7 7 7 8 9 9 9 10 13 14 14 12 11 9 8 7 6 5 5
17 17 17 17 17 17 18 18 18 18 18 17 17 17 17 17 17 18 18 19 19 19 18 18 18 17 16 15 15 15 16 17 17 17 18 19 21 22 23 23 22 21 18 16 13 12 13 13 13 14 16 14 14 15 17 19 20 19 18 16 15 14 14 13 12 10 9 8 7 7 8 9 9 10 10 12 12 12 10 9 8 6 5 4 4 3
Wind_Direction
273 271 268 264 261 259 259 258 259 264 271 278 285 290 293 296 299 302 306 310 308 294 267 244 230 224 223 223 222 222 223 226 230 232 232 229 227 226 226 226 227 227 227 228 228 228 227 227 226 226 226 225 225 225 225 226 226 226 226 226 226 226 227 227 228 228 229 230 231 231 231 230 230 230 232 234 235 236 237 238 238 237 237 238 239 241
275 272 266 260 255 252 251 252 254 258 266 274 280 285 289 292 296 299 302 305 307 301 284 257 236 223 218 218 219 220 221 225 230 233 233 231 228 226 226 226 226 227 227 228 228 228 228 227 225 225 226 225 225 225 225 225 225 226 227 227 227 227 228 228 228 229 230 231 232 232 232 231 231 232 233 234 235 236 237 237 237 238 238 238 239 240
277 271 262 255 248 244 244 247 252 258 264 271 276 281 285 289 293 297 300 302 305 304 294 272 249 230 220 217 218 219 220 223 227 229 230 230 228 226 225 225 225 226 227 227 228 228 228 226 225 225 225 225 226 226 226 226 226 226 227 228 228 229 229 229 229 230 230 231 232 232 233 232 233 233 234 235 235 236 236 237 237 238 239 239 240 240
275 268 259 251 244 239 239 242 248 255 261 267 272 277 281 286 292 297 300 303 305 305 300 283 260 240 227 220 218 218 219 220 221 223 224 225 226 226 225 225 225 225 226 227 227 227 227 225 224 225 226 227 227 227 227 228 227 228 228 229 230 230 230 230 230 230 231 232 233 233 234 234 234 235 236 235 235 235 236 237 238 239 240 240 240 240
273 266 258 248 239 234 235 237 242 248 254 258 263 269 276 283 290 296 300 303 305 303 299 290 268 245 230 223 220 219 220 220 220 221 221 223 224 225 225 225 225 225 225 225 225 226 226 225 224 225 226 227 227 227 228 228 228 228 229 230 230 231 231 231 231 231 231 232 233 234 234 235 236 237 237 236 235 235 237 238 240 241 240 240 240 239
274 267 258 245 235 230 230 232 236 241 244 247 251 258 268 277 286 293 297 300 301 299 296 294 280 248 227 222 221 222 223 225 226 226 226 226 227 226 226 225 224 224 223 223 223 223 224 224 223 224 225 226 226 228 229 229 229 229 229 230 230 231 231 231 231 232 232 233 234 234 235 236 237 238 239 239 238 238 239 240 241 241 240 239 238 237
275 267 257 243 233 228 225 226 230 232 233 235 240 247 255 264 274 283 290 295 296 294 292 295 295 265 228 219 219 221 224 227 229 231 232 232 231 231 229 228 226 224 222 221 220 220 220 221 221 222 223 224 227 229 230 231 231 230 230 231 231 231 231 231 231 232 232 233 235 235 236 237 237 238 239 240 240 240 240 241 241 241 240 239 237 236
272 266 256 240 230 225 222 221 222 223 223 224 225 228 231 238 246 258 272 282 286 285 284 292 301 299 253 219 216 219 222 225 227 230 232 234 235 236 235 233 230 227 225 223 222 221 220 221 222 223 224 227 229 231 232 232 231 231 231 231 231 230 230 230 230 231 233 234 236 237 237 237 238 238 238 239 239 240 240 240 240 240 240 239 238 237
266 263 254 239 228 220 217 216 216 216 217 217 216 213 208 205 208 215 228 246 265 271 275 294 316 333 343 220 205 208 216 221 225 227 229 232 235 237 238 236 234 232 230 229 229 228 228 228 229 230 231 232 233 234 234 232 231 231 232 232 230 229 228 229 230 232 234 235 237 237 237 236 236 236 236 236 238 239 240 240 240 240 240 240 239 238
262 259 252 241 232 224 215 201 203 208 208 211 212 212 207 192 181 171 157 151 171 231 255 301 353 4 9 39 131 176 196 208 215 219 222 224 228 231 233 234 233 233 233 234 234 234 235 235 236 236 237 237 237 236 234 232 230 230 230 230 229 228 229 230 232 233 235 236 236 235 234 233 232 232 233 235 237 239 240 241 241 241 241 240 240 240
262 258 251 242 235 230 222 200 190 192 195 198 203 207 207 200 185 161 137 121 113 113 113 93 52 31 17 27 64 116 155 175 187 195 199 203 207 211 216 220 222 224 226 228 230 232 233 234 235 236 236 236 235 234 233 231 230 229 228 227 227 228 229 231 232 234 236 236 235 233 230 230 230 232 234 237 239 240 241 241 241 241 241 240 240 239
260 256 248 237 231 227 220 204 186 180 179 179 184 198 211 211 200 174 146 129 112 104 98 93 80 58 38 31 46 77 108 130 142 150 158 167 175 179 182 185 189 192 196 201 206 211 218 222 224 227 228 229 229 230 230 230 230 228 227 227 228 230 231 231 232 234 236 237 236 233 231 231 234 237 240 242 242 242 241 240 240 240 239 239 239 238
255 250 240 233 227 220 207 190 177 174 178 180 180 191 211 211 198 171 142 125 115 109 103 94 84 72 61 51 50 63 82 98 111 122 132 132 135 142 148 151 154 156 160 165 171 179 191 200 206 211 215 219 221 224 226 227 227 227 226 227 230 232 232 233 233 234 236 236 236 235 235 237 240 242 245 245 244 242 241 239 239 239 238 238 237 236
249 243 237 233 229 220 206 190 182 184 192 195 197 199 197 191 174 148 124 115 112 110 108 96 84 73 66 60 59 64 73 84 94 103 109 107 109 115 123 127 130 135 141 142 145 152 167 181 190 198 204 209 213 217 219 220 221 221 221 224 226 228 230 231 232 232 233 232 232 233 236 239 242 245 246 246 246 244 243 241 240 239 238 237 237 236
240 233 229 228 226 219 211 203 200 200 200 199 197 192 183 172 158 139 123 118 116 112 106 98 88 78 69 63 63 65 69 79 85 88 89 89 93 101 107 109 110 114 118 116 114 120 138 153 164 173 184 194 201 206 209 210 212 213 215 218 220 222 223 224 224 224 225 225 225 226 229 232 236 239 241 243 244 244 244 244 243 241 240 239 238 238
238 230 221 225 225 220 216 211 209 205 198 192 185 176 164 163 159 148 135 132 127 120 112 105 94 82 73 76 77 74 70 75 81 83 82 80 84 92 98 98 97 97 98 96 96 99 108 117 124 131 141 154 171 183 190 193 197 202 204 208 211 213 215 215 215 214 214 214 215 216 218 220 223 226 228 231 234 236 238 238 239 239 239 238 238 238
240 234 229 228 228 225 219 213 208 200 189 180 173 168 165 166 164 156 146 140 135 129 125 120 115 110 97 91 88 85 82 77 79 82 80 76 77 85 92 93 91 89 89 88 89 91 95 99 103 107 112 121 133 145 153 158 164 171 178 183 188 191 192 192 192 191 189 187 188 191 193 197 200 204 208 212 215 219 221 224 226 228 230 231 232 233
238 233 232 231 230 225 215 208 203 194 182 173 169 167 167 166 163 159 152 146 141 136 132 126 122 124 130 130 102 97 94 87 83 83 79 74 74 81 88 91 90 88 86 85 85 88 90 92 95 99 104 110 116 120 123 126 130 135 140 144 149 153 154 153 153 152 150 149 148 148 149 152 156 160 165 169 174 180 186 191 194 198 201 204 206 208
236 233 230 229 228 221 210 202 195 187 179 172 167 163 161 161 159 156 153 149 144 139 132 121 111 112 120 131 123 111 103 99 93 88 80 71 70 77 85 89 90 88 86 85 85 87 89 91 94 97 102 106 109 111 113 114 116 118 121 124 127 130 131 132 132 131 131 131 131 129 128 127 127 128 129 131 133 136 138 139 139 139 138 139 140 143
236 233 229 227 222 214 204 200 194 187 180 174 167 160 155 154 153 152 151 145 139 133 126 120 114 113 119 128 127 118 109 106 101 93 84 73 68 72 80 85 87 86 85 85 86 88 89 90 93 96 99 103 105 108 109 110 112 113 115 117 119 121 122 123 123 123 123 124 124 124 124 124 123 121 120 119 119 118 118 117 116 114 113 112 111 111
235 234 232 225 214 204 201 198 193 187 181 172 164 158 156 153 151 150 146 137 127 119 115 114 115 119 125 127 128 122 115 112 109 102 91 76 67 67 75 82 85 85 83 84 86 88 88 89 89 91 94 98 102 104 106 107 108 109 110 111 113 115 117 118 119 120 121 123 123 124 125 125 125 124 122 120 118 116 114 111 109 107 105 104 104 104
233 232 231 223 213 202 197 192 188 183 178 170 163 159 157 156 154 149 142 133 124 118 115 116 119 123 126 127 128 126 119 116 114 111 99 85 65 63 75 81 84 83 81 83 86 88 88 87 87 88 91 95 98 101 103 105 106 106 107 108 109 110 112 114 115 117 118 120 121 121 122 122 122 122 121 120 118 115 113 111 108 106 104 103 104 105
231 229 225 217 209 202 194 186 181 178 175 171 167 164 162 159 155 148 142 135 128 123 119 119 120 121 122 124 126 125 121 118 115 110 101 94 68 68 78 83 83 82 80 83 87 89 90 88 87 87 89 91 94 97 100 102 104 105 106 106 107 107 108 109 111 112 114 116 117 118 119 119 119 119 118 117 116 114 113 111 110 109 109 109 110 112
225 221 214 207 201 195 188 180 174 171 170 169 168 165 161 157 151 145 139 134 128 123 120 117 114 112 111 114 118 120 121 119 114 109 102 97 86 82 84 86 84 81 80 84 88 90 90 89 88 88 87 88 90 93 95 98 101 103 104 105 105 105 105 106 107 108 110 112 114 115 117 118 118 119 119 118 117 115 114 113 113 114 115 116 117 118
216 210 204 197 192 187 180 173 168 167 167 166 163 158 153 148 143 138 134 130 126 122 120 115 110 105 104 106 107 110 118 117 114 111 108 103 93 88 89 91 89 85 83 85 89 90 89 88 88 88 86 86 87 89 91 94 96 98 100 102 103 103 103 103 103 104 105 108 110 112 114 116 117 118 118 118 118 117 116 116 116 117 117 118 119 119
208 202 194 187 181 176 170 165 164 166 167 165 161 155 149 144 137 131 127 126 126 125 122 117 113 111 108 101 96 100 112 116 115 114 114 112 105 95 92 95 94 90 86 85 86 87 86 86 87 88 87 87 86 88 90 91 93 94 96 97 99 100 101 101 101 101 103 104 106 108 110 111 113 114 115 117 117 118 118 118 119 118 118 118 118 118
188 180 173 169 166 163 158 157 159 163 166 166 163 158 153 145 136 129 128 134 136 133 129 123 116 113 106 96 92 100 112 114 115 116 117 115 112 105 102 101 99 94 89 85 83 84 83 83 85 87 89 89 88 88 89 90 91 91 92 93 95 96 97 99 99 100 101 103 104 106 107 109 110 112 114 115 117 118 119 120 121 121 121 119 117 116
157 153 150 150 150 148 145 146 151 158 162 163 163 161 158 149 141 137 145 148 144 138 133 130 127 122 108 102 100 107 116 118 118 118 118 115 113 114 117 111 105 100 94 87 83 83 83 82 84 87 89 91 91 89 88 88 89 90 90 91 92 93 94 96 98 99 100 102 104 106 107 109 111 112 114 115 116 118 120 121 122 123 123 121 119 116
134 135 135 134 132 130 129 133 140 146 151 154 156 158 159 155 149 148 152 150 145 139 135 134 131 126 117 114 109 108 116 123 126 124 121 116 116 122 125 119 113 108 102 95 86 80 77 78 82 86 90 93 94 93 91 90 90 90 89 90 91 92 93 94 95 96 98 100 102 104 106 109 111 112 113 114 115 117 119 121 122 124 124 123 121 120
124 124 123 120 118 117 117 120 125 130 135 140 146 152 157 157 154 152 152 150 146 142 138 135 132 129 125 118 108 102 115 138 136 130 124 121 124 130 131 128 124 120 115 110 95 73 64 71 79 86 92 96 97 97 97 96 95 94 93 92 91 92 93 93 94 94 94 95 97 99 102 105 107 110 111 112 114 115 118 120 122 123 124 124 123 123
116 116 114 114 114 115 115 117 118 121 125 131 139 146 151 152 151 150 151 151 148 144 141 138 138 138 138 135 127 123 149 165 150 136 129 127 132 138 138 136 135 133 129 129 130 113 73 64 75 87 96 99 100 100 101 101 101 100 99 97 95 94 96 96 96 94 93 93 93 94 96 99 102 105 108 109 111 112 115 117 120 122 124 125 124 123
110 109 109 111 113 114 115 116 118 120 123 128 133 138 142 144 145 147 149 151 149 145 142 141 142 143 145 142 136 135 151 166 155 142 135 131 133 137 138 137 135 134 130 128 128 128 127 108 84 90 97 99 100 101 104 106 106 106 105 104 102 101 102 103 101 98 96 94 93 91 92 93 95 98 101 103 105 106 108 111 115 119 123 125 124 123
105 104 105 107 109 110 110 113 115 118 121 125 129 133 136 138 141 143 146 147 145 143 141 141 141 140 133 121 113 120 141 156 154 146 140 136 134 135 136 131 124 116 112 109 109 111 114 125 111 99 97 99 101 104 107 109 111 111 111 109 108 107 109 109 108 105 103 101 99 96 93 92 91 92 94 96 98 100 101 103 106 112 119 124 125 125
102 100 100 102 102 103 105 108 112 114 118 121 125 128 131 132 134 136 139 141 141 141 141 142 141 136 125 117 111 117 133 150 152 147 144 141 138 136 135 128 122 115 106 99 97 100 106 114 117 110 100 98 101 106 109 112 114 114 113 111 110 110 111 110 110 109 108 106 104 101 99 97 95 93 92 93 94 96 98 99 101 104 110 117 123 127
100 97 97 97 98 99 100 103 106 109 112 115 119 123 125 127 128 130 133 136 138 140 141 141 141 138 134 132 129 129 136 148 151 149 148 145 141 137 134 130 126 122 114 109 106 106 110 114 117 117 111 101 98 102 109 113 115 114 110 108 106 106 106 106 106 107 107 105 103 102 101 101 100 98 95 94 94 96 98 100 101 102 105 110 117 125
98 95 94 95 96 97 98 99 101 103 106 109 113 117 121 123 124 126 128 131 134 136 137 138 139 139 139 138 136 136 140 147 150 151 150 148 144 139 133 131 129 126 121 120 120 121 121 119 118 117 114 109 100 99 107 113 115 112 107 103 101 100 99 99 101 103 104 102 100 100 100 102 103 103 102 102 103 103 103 102 103 104 107 110 115 121
99 96 95 96 97 98 99 99 100 100 102 105 109 113 116 118 120 121 123 125 127 129 129 129 130 132 135 136 136 136 141 146 149 151 151 150 147 141 133 130 129 128 126 126 127 128 127 125 121 115 109 108 110 111 111 113 112 108 104 101 99 97 95 95 96 99 101 101 100 100 101 103 105 107 109 113 115 116 115 113 112 112 113 115 118 121
101 98 97 97 99 100 100 99 99 100 102 104 107 110 113 115 116 117 118 119 120 121 120 120 120 121 125 129 131 135 140 144 148 150 152 152 149 142 133 128 127 128 130 132 133 133 131 130 126 119 105 103 111 117 117 113 109 105 103 101 98 96 94 94 96 99 101 103 103 104 104 106 108 111 114 118 122 124 123 122 122 123 123 124 125 126
102 99 98 98 100 101 101 100 100 102 104 106 108 111 113 114 114 115 114 114 114 115 115 114 114 115 118 122 126 131 137 141 146 150 152 152 149 143 135 129 127 129 132 133 134 134 134 135 134 133 126 116 114 115 116 114 112 110 109 106 101 97 95 96 99 102 104 107 108 108 109 110 112 114 117 120 124 125 123 123 123 126 130 131 131 132
102 100 99 100 102 103 103 104 105 106 107 108 110 112 112 112 111 111 111 111 111 111 112 112 112 112 114 116 120 124 130 136 143 148 151 151 148 143 137 133 132 132 133 132 131 130 129 129 129 129 128 126 124 121 117 116 117 117 115 109 103 101 102 101 102 103 106 109 110 111 112 114 115 117 119 121 122 121 120 120 121 124 128 132 134 134
103 101 101 103 104 105 106 108 109 109 110 110 109 109 109 109 109 107 107 106 106 106 108 109 108 106 106 106 109 113 118 125 133 140 146 148 147 143 138 137 137 137 136 132 128 125 123 122 122 123 124 124 124 122 120 120 123 123 121 114 112 113 112 108 106 106 108 109 111 113 115 117 118 119 120 120 118 117 118 119 120 122 124 127 131 133
104 104 105 107 107 108 109 110 112 112 112 110 108 106 107 109 109 108 107 104 102 103 104 104 102 98 94 93 95 100 105 111 118 127 134 139 141 138 136 137 140 141 138 132 124 119 120 122 123 124 126 126 125 122 120 122 126 127 125 122 121 119 115 114 112 111 111 110 112 114 115 115 114 115 116 115 114 115 117 118 119 119 120 120 123 126
107 108 109 110 111 111 112 111 111 110 110 107 105 105 108 110 111 111 109 106 104 103 104 104 102 97 91 86 86 89 95 102 109 115 120 125 128 129 131 135 141 144 142 133 123 117 119 123 124 126 130 131 128 124 122 122 124 127 128 129 129 125 115 120 123 121 117 114 112 112 112 111 111 112 113 113 114 114 115 116 116 116 115 115 116 118
111 111 111 111 112 112 111 109 108 107 106 103 103 105 108 111 113 112 110 107 106 105 104 104 102 98 91 88 85 84 88 96 104 109 112 115 118 121 125 131 138 144 145 137 129 124 123 121 122 126 131 131 128 125 124 124 124 127 130 135 134 129 124 128 131 130 125 120 116 112 109 108 109 111 113 114 114 114 113 113 112 112 112 113 112 112
113 112 111 111 111 109 106 105 105 105 104 103 103 104 108 111 112 112 109 108 106 105 105 105 102 97 92 91 89 87 87 90 96 102 107 110 114 117 121 127 135 140 142 139 136 133 128 123 124 128 132 129 125 123 123 124 125 127 130 135 133 129 127 131 134 134 130 125 120 115 111 110 113 115 115 113 113 112 111 109 107 106 106 108 107 106
113 112 111 111 109 106 105 105 105 104 102 101 102 104 107 109 110 110 109 108 106 105 104 105 103 100 99 98 96 93 89 87 88 92 99 105 110 114 116 121 127 132 134 132 133 134 134 132 132 132 130 124 119 119 124 127 126 125 126 129 129 127 127 130 132 133 132 128 123 119 117 118 122 122 118 114 112 111 110 107 105 103 104 105 106 105
112 111 111 109 107 105 105 106 105 103 101 99 100 102 105 107 108 107 106 106 105 104 102 100 99 99 100 101 100 98 96 92 89 90 94 100 105 109 112 114 117 120 121 122 123 123 126 131 135 136 131 123 115 114 122 130 130 127 127 128 128 127 125 126 129 131 130 127 124 121 123 129 132 129 123 119 116 113 111 109 108 108 108 108 108 107
111 110 109 108 106 104 103 104 103 102 100 99 99 100 102 105 106 105 103 103 104 104 102 99 97 96 95 95 96 99 100 99 96 95 97 100 104 107 110 111 112 112 113 113 114 114 116 121 127 132 134 131 125 120 122 128 130 130 130 130 129 126 122 123 125 128 127 124 120 119 124 132 135 134 131 125 119 113 112 111 112 112 112 111 111 112
108 108 108 107 105 103 102 102 102 102 101 100 100 99 98 102 104 104 103 103 103 103 102 100 99 98 96 94 95 98 100 101 101 101 102 105 108 110 111 112 111 110 108 107 106 106 106 107 109 114 123 130 130 127 126 127 130 131 132 131 129 125 122 121 121 122 121 118 115 116 120 126 131 136 137 127 118 113 113 112 113 112 112 113 115 118
105 106 106 105 104 103 103 102 101 101 101 101 101 100 99 100 101 102 103 103 102 101 100 100 101 101 99 98 99 100 102 103 104 105 108 111 114 115 115 115 114 111 107 104 101 98 94 89 88 90 97 112 124 128 130 130 130 131 129 127 126 124 120 118 117 116 114 112 112 115 120 124 130 137 140 129 121 116 114 111 109 106 107 112 119 125
104 104 105 104 103 103 103 103 102 101 101 101 101 101 100 99 99 99 101 100 99 98 97 98 100 101 102 101 101 103 106 108 109 111 114 118 120 121 120 120 119 116 112 107 100 91 85 79 75 74 76 88 105 121 131 133 132 129 123 122 122 121 117 115 113 111 108 106 107 110 117 124 130 136 138 133 124 115 109 104 100 98 97 101 108 121